Regional Weather Roundup
Issued by NWS

Home | Current Version | Previous Version | Text Only | Print | Product List | Glossary On
Versions: 1 2 3 4 5 6 7 8 9 10 11 12 13 14 15 16 17 18 19 20 21 22 23 24 25 26 27 28 29 30 31 32 33 34 35 36 37 38 39 40 41 42 43 44 45 46 47 48 49 50
000
ASUS44 KJAN 270210
RWRMS

MISSISSIPPI HOURLY WEATHER ROUNDUP
NATIONAL WEATHER SERVICE JACKSON MS
900 PM CDT WED APR 26 2017

NOTE: "FAIR: INDICATES FEW OR NO CLOUDS BELOW 12,000 FEET WITH NO
SIGNIFICANT WEATHER AND/OR OBSTRUCTIONS TO VISIBILITY.

MSZ001>002-007>008-010>013-018>021-025>028-034>036-270300-
NORTHWEST MISSISSIPPI

CITY           SKY/WX    TMP DP  RH WIND       PRES   REMARKS
BATESVILLE     TSTM      63  61  94 CALM      29.59R
CLARKSDALE     CLOUDY    63  63 100 SE5       29.57R FOG
CLEVELAND      MOCLDY    63  63 100 SE9       29.54S
GREENWOOD      TSTM      62  61  96 VRB5      29.64R VSB 3/4
GREENVILLE     CLOUDY    63  61  93 SE6       29.55R
OXFORD         RAIN      63  59  88 W10G30    29.62R
TUNICA         RAIN      61  61 100 SE6       29.59R
WINONA         MOCLDY    75  63  64 S14G23    29.54S
$$

MSZ003>006-009-014>017-022>024-029>033-037>039-270300-
NORTHEAST MISSISSIPPI

CITY           SKY/WX    TMP DP  RH WIND       PRES   REMARKS
COLUMBUS AFB   CLOUDY    77  60  56 S18G30    29.60R
CORINTH        FAIR      73  59  60 SE16G22   29.53F
GOLDN TRIANGLE CLOUDY    75  57  53 S22G30    29.58R
STARKVILLE     MOCLDY    75  61  60 S14       29.61R
TUPELO         CLOUDY    76  58  53 SE15G23   29.56S
$$

MSZ040-058-270300-
CENTRAL MISSISSIPPI

CITY           SKY/WX    TMP DP  RH WIND       PRES   REMARKS
JACKSON INTL   CLOUDY    76  66  71 SE21G29   29.55F
JACKSON HAWKNS CLOUDY    75  66  73 S18G32    29.54F
MADISON        FAIR      73  64  73 SE8G16    29.55F
MERIDIAN KEY   CLOUDY    75  65  70 S15       29.65S
MERIDIAN NAS   MOCLDY    75  60  59 S10G17    29.66R
RAYMOND        FAIR      77  68  73 S17G28    29.55R
VICKSBURG VKS  FOG       64  61  88 NW15G25   29.57R VSB 3/4
$$

MSZ059>079-270300-
SOUTH MISSISSIPPI

CITY           SKY/WX    TMP DP  RH WIND       PRES   REMARKS
HATTIESBURG    CLOUDY    74  68  81 S12       29.67R
LAUREL         CLOUDY    73  67  82 SE8       29.66S
MCCOMB         CLOUDY    76  69  79 S18       29.63R
NATCHEZ        CLOUDY    78  70  76 S12G23    29.58R
PINE BELT      CLOUDY    73  66  78 S18G24    29.66F
$$

MSZ080>082-270300-
COASTAL MISSISSIPPI

CITY           SKY/WX    TMP DP  RH WIND       PRES   REMARKS
BAY ST LOUIS   CLOUDY    73  70  88 SE14      29.69R
BILOXI         CLOUDY    75  72  90 SE13      29.71R
PASCAGOULA     CLOUDY    74  69  85 SE12      29.73R
GULFPORT       CLOUDY    76  73  91 SE18      29.70S
$$

LAZ007>009-015>016-023>026-270300-
NORTHEAST LOUISIANA

CITY           SKY/WX    TMP DP  RH WIND       PRES   REMARKS
BASTROP        CLOUDY    64  64  98 W6        29.57R
TALLULAH/VBURG LGT RAIN  63  62  97 W9G18     29.58R FOG
VIDALIA        CLOUDY    79  70  73 W18G30    29.59R
$$



USA.gov is the U.S. government's official web portal to all federal, state and local government web resources and services.